Snowfall_Accumulation
0.7 0.0 0.0 0.0 0.0 0.0 0.0 0.0 0.0 0.0 0.0 0.0 0.0 0.0 0.0 0.0 0.0 0.0 0.0 0.0 0.0 0.0 0.0 0.0 0.0 0.0 0.0
0.0 0.0 0.0 0.0 0.0 0.0 0.0 0.0 0.0 0.0 0.0 0.0 0.0 0.0 0.0 0.0 0.0 0.0 0.0 0.0 0.0 0.0 0.0 0.0 0.0 0.0 0.0
0.3 0.1 0.0 1.1 1.1 0.8 0.0 0.0 0.0 0.0 0.0 0.0 0.0 0.0 0.0 0.0 0.0 0.0 0.0 0.0 0.0 0.0 0.0 0.0 0.0 0.0 0.0
2.6 3.2 1.8 1.2 1.4 1.1 0.6 0.2 0.1 0.0 0.0 0.0 0.0 0.0 0.0 0.0 0.0 0.0 0.0 0.0 0.0 0.0 0.0 0.0 0.0 0.0 0.0
7.1 5.5 5.3 4.1 4.2 3.4 0.7 0.2 2.2 1.6 0.9 0.3 0.0 0.0 0.0 0.0 0.0 0.0 0.0 0.0 0.0 0.0 0.0 0.0 0.0 0.0 0.0
8.5 4.2 3.0 3.2 3.5 4.5 5.9 5.9 5.6 1.7 1.2 0.6 0.1 0.0 0.0 0.0 0.0 0.0 0.0 0.0 0.0 0.0 0.0 0.0 0.0 0.0 0.0
6.7 5.2 4.1 2.7 4.4 5.2 4.0 5.5 4.6 1.6 1.6 1.9 0.7 0.3 0.0 0.0 0.0 0.0 0.0 0.0 0.0 0.0 0.0 0.0 0.0 0.0 0.0
0.3 0.8 1.5 1.5 1.9 2.6 3.9 3.5 2.0 1.3 1.2 4.1 0.6 0.4 0.1 0.0 0.0 0.0 0.0 0.0 0.0 0.0 0.0 0.0 0.0 0.0 0.0
0.8 0.3 0.2 0.3 0.9 5.5 11.5 14.4 10.6 2.4 0.7 2.0 0.9 0.7 0.4 0.3 0.0 0.0 0.0 0.0 0.0 0.0 0.0 0.0 0.0 0.0 0.0
1.1 0.8 0.5 0.4 0.1 0.8 7.5 18.6 8.7 6.3 0.3 5.9 2.1 1.8 7.3 1.7 1.6 1.1 0.0 0.0 0.0 0.0 0.0 0.0 0.0 0.1 0.3
2.3 2.5 1.6 1.5 0.9 1.4 2.9 11.8 17.6 11.4 0.1 10.7 14.1 2.9 12.6 6.8 3.8 3.4 2.3 0.1 0.3 0.0 0.0 0.1 0.1 0.2 1.6
5.8 2.2 0.7 0.8 0.5 0.9 1.5 2.9 5.2 11.5 3.4 5.9 26.6 13.5 19.6 15.6 6.4 5.9 2.9 3.2 2.6 1.8 0.6 0.4 0.3 0.3 0.2
8.8 4.7 2.2 1.5 2.6 4.7 6.6 7.2 8.5 9.6 9.7 8.8 14.3 14.7 19.1 22.0 13.2 6.9 8.5 6.6 4.4 6.8 4.3 2.5 2.1 1.2 2.0
8.5 5.9 5.5 7.4 8.1 7.9 13.2 11.3 13.9 10.6 7.9 7.8 9.7 12.3 15.4 9.8 13.8 11.5 7.5 14.4 9.0 8.0 8.0 3.4 1.3 0.6 0.8
7.5 6.6 6.1 9.6 9.9 12.1 17.2 17.4 20.4 13.0 9.9 7.4 8.1 6.7 6.5 8.8 15.9 9.6 12.1 10.7 9.4 12.1 10.7 7.7 6.7 3.8 1.3
8.3 9.4 12.3 13.8 15.6 17.2 16.9 18.4 18.8 11.9 12.7 9.4 10.2 12.1 12.5 7.6 9.2 15.7 12.2 13.8 14.3 14.4 11.9 11.5 9.6 5.9 2.9
12.7 12.9 15.1 17.7 18.6 18.7 15.8 15.3 14.1 10.3 7.8 7.3 12.0 20.3 29.8 16.8 8.3 6.9 17.7 14.7 12.4 13.5 13.3 11.3 12.8 6.6 1.7